STARLINK-36094, 66851

Orbit data source: Space-Track

STARLINK-36094, 66851 is a payload satellite owned by SpaceX/Seattle (US) in LEO that was launched on Tue, 02 Dec 2025 UTC via an FALCON 9 launch vehicle from the Air Force Eastern Test Range (AFETR). Payload-class satellites include a variety of spacecraft equipped with specific instruments for various scientific and technological missions. These include communications satellites like Starlink; space stations such as the ISS; scientific satellites like the Hubble; Earth observation satellites from companies like Planet Labs, Umbra, and HawkEye 360; GPS; miniature CubeSats for education and research; and military/defense satellites.

Loading next visibility...
Identifier
66851, 2025-281D
Orbit
LEO
Country
Flag of USUS
Related business
Manufacturer
SpaceX/Seattle
Mission
Operational Commercial Communications
Bus & Motor
STARLINK V2MO, Unknown motor
Mass
575 kg wet, ~530 kg dry
Launch date (UTC)
2025-12-02 (7 months ago)
Launch vehicle
FALCON 9
Launch site
Air Force Eastern Test Range (AFETR)
Object type
Payload
Rocket body
Debris
Shape & HBR
Box + 2 Pan, 17.7 m
Radar Cross Section
36.964 m², Large (>1 m²)

Expand to show TLE details & history
Last TLE update: 14 hours ago

TLE from 14 hours ago
0 STARLINK-36094
1 66851U 25281D   26171.26194654  .00014754  00000-0  54427-3 0  9994
2 66851  43.0048 124.1113 0001254 291.2551  68.8167 15.27598689 31872
Epoch: 2026-06-20T06:17Z
TLE epoch observation values (Epoch: 2026-06-20T06:17:12.181Z)
Latitude
0.00002°
Longitude
121.33147°
Altitude
482.458 km
Speed
7.626 km/s
True Right ascension
08h 16m 26s
True Declination
0° 00' 00"
Sunlit
Object was in daylight at epoch
Visualization orbit readout
Latitude
Unknown
Longitude
Unknown
Altitude
Unknown
Speed
Unknown
Apparent Right ascension
Unknown
Apparent Declination
Unknown
Sunlit
N/A
Visualization observer readout
Local Sidereal Time
07:17:08
Azimuth
Unknown
Elevation
Unknown
Doppler factor
Unknown
Orbital elements
Apogee altitude
485.798 km
Perigee altitude
484.077 km
Semi-major axis
6,863.075 km
Eccentricity
0.00013
Inclination
43.0048°
RAAN
124.1113°
Arg. of periapsis
291.2551°
True anomaly
68.8301°
Mean anomaly
68.8167°
Eccentric anomaly
68.8234°
Mean motion
3.81738 °/min
Orbital period
94.31 mins
BSTAR
0.00054427
Loading maneuver chart data...
Computing Atmospheric mass density...
Loading historical data...
Loading historical data...
Loading historical data...
Loading historical data...
Loading historical data...
Loading historical data...
Loading historical data...

Documentation

Showing up to 5 results
|